FW4529 Weather Reports


time (UTC)temp
F
wind
direction
speed
knots
gust
knots
rain 1hr
in
rain 24hr
in
rain mn
in
humidity
%
barometer
mb
20190921214624 49 0.0 0.0 0.00 0.00 0.00 87 1029.5
20190921213632 49 0.0 0.0 0.00 0.00 0.00 86 1029.3
20190921212623 50 0.0 0.0 0.00 0.00 0.00 86 1029.4
20190921211631 50 110 0.0 0.9 0.00 0.00 0.00 86 1029.6
20190921210624 50 0.0 0.0 0.00 0.00 0.00 86 1029.5
20190921205631 50 0.0 0.0 0.00 0.00 0.00 85 1029.5
20190921204623 50 0.0 0.0 0.00 0.00 0.00 85 1029.6
20190921203634 51 0.0 0.0 0.00 0.00 0.00 83 1029.7
20190921202623 51 0.0 0.0 0.00 0.00 0.00 83 1029.7
20190921201631 51 0.0 0.0 0.00 0.00 0.00 83 1029.5
20190921200623 52 0.0 0.0 0.00 0.00 0.00 81 1029.7
20190921195631 52 0.0 0.0 0.00 0.00 0.00 80 1030.0
20190921194624 52 0.0 0.0 0.00 0.00 0.00 79 1029.9
20190921193631 53 0.0 0.0 0.00 0.00 0.00 79 1030.0
20190921192623 54 116 0.0 0.9 0.00 0.00 0.00 77 1030.2
20190921191632 54 0.0 0.0 0.00 0.00 0.00 77 1030.0
20190921190624 55 0.0 0.0 0.00 0.00 0.00 75 1030.2
20190921185632 56 0.0 0.0 0.00 0.00 0.00 74 1030.2
20190921184623 55 0.0 0.0 0.00 0.00 0.00 75 1030.0
20190921183632 56 0.0 0.0 0.00 0.00 0.00 72 1030.0
20190921182625 58 0.0 0.0 0.00 0.00 0.00 69 1030.2
20190921181631 59 0.0 0.0 0.00 0.00 0.00 65 1030.1
20190921180623 60 0.0 0.0 0.00 0.00 0.00 64 1030.4
20190921175632 60 0.0 0.0 0.00 0.00 0.00 62 1030.0
20190921174624 61 0.0 0.0 0.00 0.00 0.00 61 1030.0
20190921173631 61 0.0 0.0 0.00 0.00 0.00 62 1030.0
20190921172623 62 0.0 0.0 0.00 0.00 0.00 59 1030.1
20190921171631 63 0.0 0.0 0.00 0.00 0.00 59 1030.1
20190921170624 64 0.0 0.0 0.00 0.00 0.00 57 1030.1
20190921165632 65 0.0 0.0 0.00 0.00 0.00 55 1029.9
20190921164624 67 0.0 0.0 0.00 0.00 0.00 52 1030.3
20190921163632 67 118 0.9 1.7 0.00 0.00 0.00 50 1030.4
20190921162623 70 119 0.9 0.9 0.00 0.00 0.00 46 1030.4
20190921161632 70 123 0.9 1.7 0.00 0.00 0.00 45 1030.4
20190921160623 70 121 0.9 0.9 0.00 0.00 0.00 44 1030.4
20190921155631 71 111 0.9 2.6 0.00 0.00 0.00 44 1030.4
20190921154624 70 123 0.9 1.7 0.00 0.00 0.00 43 1030.4
20190921153633 71 123 0.9 1.7 0.00 0.00 0.00 44 1030.4
20190921152624 69 126 0.0 0.9 0.00 0.00 0.00 44 1030.4
20190921151632 70 64 1.7 4.3 0.00 0.00 0.00 44 1030.4
20190921150624 69 124 1.7 2.6 0.00 0.00 0.00 46 1030.5
20190921145632 71 110 0.9 2.6 0.00 0.00 0.00 43 1030.4
20190921144624 69 118 0.9 2.6 0.00 0.00 0.00 45 1030.7
20190921143632 69 131 1.7 4.3 0.00 0.00 0.00 45 1030.5
20190921142624 70 122 1.7 5.2 0.00 0.00 0.00 44 1030.9
20190921141632 68 120 1.7 5.2 0.00 0.00 0.00 46 1031.0
20190921140624 67 70 1.7 4.3 0.00 0.00 0.00 46 1031.1
20190921135632 68 141 0.9 2.6 0.00 0.00 0.00 46 1031.0
20190921134624 68 125 1.7 2.6 0.00 0.00 0.00 46 1031.4
20190921133632 69 139 0.9 4.3 0.00 0.00 0.00 45 1031.3
20190921132624 68 136 0.9 0.9 0.00 0.00 0.00 45 1031.5
20190921131632 68 129 0.9 1.7 0.00 0.00 0.00 45 1031.4
20190921130623 68 119 1.7 5.2 0.00 0.00 0.00 45 1031.4
20190921125632 67 131 0.9 1.7 0.00 0.00 0.00 45 1031.7
20190921124624 67 135 0.9 1.7 0.00 0.00 0.00 46 1031.6
20190921123632 67 172 1.7 4.3 0.00 0.00 0.00 46 1031.8
20190921122624 67 153 0.0 1.7 0.00 0.00 0.00 45 1032.0
20190921121632 66 126 0.9 2.6 0.00 0.00 0.00 46 1032.1
20190921120624 66 184 1.7 5.2 0.00 0.00 0.00 46 1031.9
20190921115632 67 154 1.7 4.3 0.00 0.00 0.00 47 1032.1
20190921114631 65 176 2.6 5.2 0.00 0.00 0.00 48 1032.1
20190921113632 66 133 0.9 1.7 0.00 0.00 0.00 48 1032.4
20190921112624 65 148 1.7 4.3 0.00 0.00 0.00 49 1032.7
20190921111631 65 110 0.9 1.7 0.00 0.00 0.00 49 1032.4
20190921110624 64 115 1.7 4.3 0.00 0.00 0.00 50 1032.5
20190921105632 64 114 0.9 2.6 0.00 0.00 0.00 51 1032.8
20190921104624 64 147 0.9 4.3 0.00 0.00 0.00 51 1032.8
20190921103633 63 112 0.9 2.6 0.00 0.00 0.00 51 1033.1
20190921102623 64 142 1.7 5.2 0.00 0.00 0.00 51 1033.1
20190921101632 63 130 1.7 4.3 0.00 0.00 0.00 52 1032.9
20190921100624 63 129 0.9 1.7 0.00 0.00 0.00 52 1033.1
20190921095631 63 124 3.5 7.0 0.00 0.00 0.00 53 1033.1
20190921094624 61 125 1.7 4.3 0.00 0.00 0.00 54 1033.1
20190921093632 60 126 0.9 2.6 0.00 0.00 0.00 54 1033.6
20190921092624 60 52 1.7 6.1 0.00 0.00 0.00 54 1033.5
20190921091632 59 147 1.7 4.3 0.00 0.00 0.00 56 1033.6
20190921090624 59 134 0.9 1.7 0.00 0.00 0.00 57 1033.7
20190921085631 59 127 0.9 0.9 0.00 0.00 0.00 57 1033.9
20190921084624 59 110 1.7 5.2 0.00 0.00 0.00 58 1034.0
20190921083632 58 145 1.7 4.3 0.00 0.00 0.00 56 1033.8
20190921082624 58 151 1.7 4.3 0.00 0.00 0.00 58 1033.8
20190921081632 57 54 3.5 7.0 0.00 0.00 0.00 58 1034.0
20190921080624 57 95 1.7 7.0 0.00 0.00 0.00 59 1033.7
20190921075633 56 93 2.6 5.2 0.00 0.00 0.00 60 1033.8
20190921074624 56 145 1.7 4.3 0.00 0.00 0.00 62 1033.7
20190921073632 55 101 2.6 6.1 0.00 0.00 0.00 63 1033.6
20190921072624 54 156 2.6 4.3 0.00 0.00 0.00 65 1033.9
20190921071632 53 139 1.7 4.3 0.00 0.00 0.00 67 1033.9
20190921070624 52 142 1.7 2.6 0.00 0.00 0.00 70 1033.9
20190921065632 51 159 1.7 4.3 0.00 0.00 0.00 70 1034.1
20190921064624 50 123 0.9 2.6 0.00 0.00 0.00 74 1034.1
20190921063633 49 144 0.9 1.7 0.00 0.00 0.00 76 1034.4
20190921062624 48 0.0 0.0 0.00 0.00 0.00 80 1034.2
20190921061632 47 113 0.0 0.9 0.00 0.00 0.00 82 1034.2
20190921060624 46 0.0 0.0 0.00 0.00 0.00 84 1034.4
20190921055632 46 0.0 0.0 0.00 0.00 0.00 85 1034.1
20190921054625 45 123 0.0 0.9 0.00 0.00 0.00 85 1034.1
20190921053632 45 0.0 0.0 0.00 0.00 0.00 86 1034.1
20190921052624 45 0.0 0.0 0.00 0.00 0.00 86 1034.1
20190921051632 44 0.0 0.0 0.00 0.00 0.00 85 1034.1
20190921050624 44 0.0 0.0 0.00 0.00 0.00 85 1034.1
20190921045631 45 0.0 0.0 0.00 0.00 0.00 85 1034.1
20190921044624 45 135 0.9 0.9 0.00 0.00 0.00 84 1034.1
20190921043632 45 129 0.0 0.9 0.00 0.00 0.00 85 1034.0
20190921042624 45 0.0 0.0 0.00 0.00 0.00 84 1034.1
20190921041632 45 0.0 0.0 0.00 0.00 0.00 84 1034.1
20190921040624 45 0.0 0.0 0.00 0.00 0.00 84 1033.9
20190921035633 45 0.0 0.0 0.00 0.00 0.00 83 1033.9
20190921034624 46 111 0.0 0.9 0.00 0.00 0.00 82 1034.1
20190921033632 46 129 0.0 0.9 0.00 0.00 0.00 81 1034.1
20190921032624 46 135 0.0 0.9 0.00 0.00 0.00 81 1034.1
20190921031632 47 118 0.9 1.7 0.00 0.00 0.00 80 1034.1
20190921030624 47 130 0.0 0.9 0.00 0.00 0.00 80 1034.1
20190921025632 48 91 0.9 2.6 0.00 0.00 0.00 79 1034.1
20190921024624 48 137 0.0 1.7 0.00 0.00 0.00 79 1034.1
20190921023632 48 0.0 0.0 0.00 0.00 0.00 79 1033.9
20190921022624 48 131 0.0 0.9 0.00 0.00 0.00 78 1034.1
20190921021632 48 127 0.0 0.9 0.00 0.00 0.00 78 1034.1
20190921020624 48 133 0.0 0.9 0.00 0.00 0.00 78 1034.1
20190921015632 48 135 0.0 0.9 0.00 0.00 0.00 78 1034.1
20190921014624 48 120 0.0 0.9 0.00 0.00 0.00 77 1034.2
20190921013632 49 122 0.9 0.9 0.00 0.00 0.00 77 1034.2
20190921012623 49 140 0.0 0.9 0.00 0.00 0.00 77 1034.1
20190921011632 49 133 0.9 1.7 0.00 0.00 0.00 76 1034.3
20190921010624 49 127 0.9 1.7 0.00 0.00 0.00 76 1034.5
20190921005633 49 134 0.0 0.9 0.00 0.00 0.00 76 1034.2
20190921004624 49 0.0 0.0 0.00 0.00 0.00 76 1034.4
20190921003632 49 95 0.0 1.7 0.00 0.00 0.00 76 1034.4
20190921002625 49 134 0.9 0.9 0.00 0.00 0.00 76 1034.5
20190921001632 49 130 0.9 1.7 0.00 0.00 0.00 76 1034.4
20190921000624 49 118 0.0 0.9 0.00 0.00 0.00 76 1034.5
20190920235632 49 122 0.9 0.9 0.00 0.00 0.00 76 1034.6
20190920234624 49 121 0.9 1.7 0.00 0.00 0.00 76 1034.6
20190920233632 49 134 0.9 1.7 0.00 0.00 0.00 76 1034.8
20190920232624 49 146 0.9 2.6 0.00 0.00 0.00 76 1034.8
20190920231632 49 126 0.0 1.7 0.00 0.00 0.00 76 1034.8
20190920230624 49 156 1.7 2.6 0.00 0.00 0.00 76 1034.9
20190920225632 49 137 0.9 2.6 0.00 0.00 0.00 76 1034.8
20190920224624 49 128 0.9 0.9 0.00 0.00 0.00 76 1035.0
20190920223633 49 125 0.0 0.9 0.00 0.00 0.00 75 1034.9
20190920222624 50 0.0 0.0 0.00 0.00 0.00 74 1035.3
20190920221632 50 121 0.0 0.9 0.00 0.00 0.00 74 1035.3
20190920220624 50 123 0.0 0.9 0.00 0.00 0.00 77 1035.2
20190920215633 50 0.0 0.0 0.00 0.00 0.00 74 1035.4